Terminal Aerodrome Forecast
Issued by NWS

Home | Current Version | Previous Version | Text Only | Print | Product List | Glossary On
Versions: 1 2 3 4 5 6 7 8 9 10 11 12 13 14 15 16 17 18 19 20 21 22 23 24 25 26 27 28 29 30 31 32 33 34
000
FTAK31 PANC 311120
TAFAVD
TAF
PAVD 311120Z 3112/0112 08005KT P6SM SCT040 OVC050
      TEMPO 3112/3115 BKN040
     FM312000 26010KT P6SM FEW050 SCT100
     FM010600 08005KT P6SM SCT200
      AMD LTD TO CLD VIS AND WIND=

USA.gov is the U.S. government's official web portal to all federal, state and local government web resources and services.